COSMOS 1275 DEB, 12745

Orbit data source: Space-Track

COSMOS 1275 DEB, 12745 is space debris in LEO originally from a launch on Thu, 04 Jun 1981 UTC launched from the Plesetsk Missile And Space Complex (PKMTR). Debris objects in space refer to the collection of defunct objects orbiting the Earth. Examples of debris include non-operational satellites, rocket bodies, and fragments generated from explosions, collisions, or faulty payload assembly.

Loading next visibility...
Identifier
12745, 1981-053CN
Orbit
LEO
Country
Flag of CISCIS
Related business
Manufacturer
Unknown
Mission
Spacecraft
Bus & Motor
Unknown
Mass
Unknown
Launch date (UTC)
1981-06-04 (45 years ago)
Launch vehicle
Unknown
Launch site
Plesetsk Missile And Space Complex (PKMTR)
Object type
Payload
Rocket body
Debris
Shape & HBR
Unknown shape, 0.1 m
Radar Cross Section
Small (<0.1 m²)

Expand to show TLE details & history
Last TLE update: 12 hours ago

TLE from 12 hours ago
0 COSMOS 1275 DEB
1 12745U 81053CN  26034.55088853  .00000770  00000-0  59364-3 0  9997
2 12745  83.1352 228.8723 0043719 318.3320  96.2835 13.91354714240499
Epoch: 2026-02-03T13:13Z
TLE epoch observation values (Epoch: 2026-02-03T13:13:16.768Z)
Latitude
54.6262°
Longitude
-93.46647°
Altitude
936.547 km
Speed
7.387 km/s
True Right ascension
15h 54m 20s
True Declination
54° 28' 04"
Sunlit
Object was in daylight at epoch
Visualization orbit readout
Latitude
Unknown
Longitude
Unknown
Altitude
Unknown
Speed
Unknown
Apparent Right ascension
Unknown
Apparent Declination
Unknown
Sunlit
N/A
Visualization observer readout
Local Sidereal Time
03:14:37
Azimuth
Unknown
Elevation
Unknown
Doppler factor
Unknown
Orbital elements
Apogee altitude
952.917 km
Perigee altitude
889.095 km
Semi-major axis
7,299.143 km
Eccentricity
0.00437
Inclination
83.1352°
RAAN
228.8723°
Arg. of periapsis
318.332°
True anomaly
96.78117°
Mean anomaly
96.2835°
Eccentric anomaly
96.53237°
Mean motion
3.48045 °/min
Orbital period
103.43 mins
BSTAR
0.00059364
Loading maneuver chart data...
Computing Atmospheric mass density...
Loading historical data...
Loading historical data...
Loading historical data...
Loading historical data...
Loading historical data...
Loading historical data...
Loading historical data...

Documentation

Showing up to 5 results
|